Regional Weather Roundup
Issued by NWS

Home | Current Version | Previous Version | Graphics & Text | Print | Product List | Glossary On
Versions: 1 2 3 4 5 6 7 8 9 10 11 12 13 14 15 16 17 18 19 20 21 22 23 24 25 26 27 28 29 30 31 32 33 34 35 36 37 38 39 40 41 42 43 44 45 46 47 48 49 50
223
ASUS45 KBOU 292207
RWRCO

WEATHER ROUNDUP FOR COLORADO
NATIONAL WEATHER SERVICE DENVER/BOULDER CO
400 PM MDT FRI APR 29 2016

NOTE: "FAIR" INDICATES FEW OR NO CLOUDS BELOW 12000 FEET WITH NO
SIGNIFICANT WEATHER AND/OR OBSTRUCTIONS TO VISIBILITY.

COZ001>005-013-030-031-292300-
...NORTHWEST COLORADO...

CITY           SKY/WX    TMP DP  RH WIND       PRES   REMARKS
CRAIG          CLOUDY    47  34  60 N13       29.80F
HAYDEN         CLOUDY    39  34  81 NE8       29.82S
MEEKER         LGT RAIN  42  37  82 E7        29.81
MOUNT WERNER   NOT AVBL
STEAMBOAT SPGS CLOUDY    35  33  94 SW3       29.82S
WALDEN         CLOUDY    34  32  93 CALM      29.85F
$$

COZ006>008-011-292300-
...WEST CENTRAL VALLEYS...

CITY           SKY/WX    TMP DP  RH WIND       PRES   REMARKS
GRAND JUNCTION FAIR      56  37  49 NW17      29.75
MONTROSE       CLOUDY    49  35  58 W12       29.80
EAGLE          CLOUDY    37  37 100 W6        29.83
RIFLE          FAIR      53  34  48 N12       29.76
DELTA          NOT AVBL
NUCLA          NOT AVBL
$$

COZ017>023-064>068-292300-
...SOUTHWEST COLORADO...

CITY           SKY/WX    TMP DP  RH WIND       PRES   REMARKS
DURANGO        FAIR      50  29  44 W21G28    29.79
CORTEZ         FAIR      55  31  39 NW21G30   29.80
PAGOSA SPRINGS FLURRIES  36  35  99 CALM      29.83F
TELLURIDE      PTSUNNY   36  33  90 W6        29.87F FOG
WOLF CREEK PAS SNOW      25  23  93 SW18G30   29.88F VSB<1/4 WCI  11
$$

COZ009-010-012-014-032>034-037-058>063-292300-
...CENTRAL COLORADO...

CITY           SKY/WX    TMP DP  RH WIND       PRES   REMARKS
ASPEN          LGT SNOW  36  33  89 N6        29.81S FOG
BUENA VISTA    LGT RAIN  34  31  88 CALM      29.83F
COPPER MTN     NOT AVBL
BERTHOUD PASS  SNOW      18   9  68 E17G30    29.87F VSB<1/4 WCI   2
COTTONWOOD PAS LGT SNOW  32  30  93 E3        29.84F
GUNNISON       PTSUNNY   37  30  75 NE6       29.83F
KREMMLING      CLOUDY    36  32  87 CALM      29.83F
LEADVILLE      LGT SNOW  29  25  85 S6        29.80F FOG     WCI  23
SALIDA         CLOUDY    35  32  88 CALM      29.91F
SUNLIGHT       CLOUDY    32  28  86 CALM      29.89F
WILKERSON PASS SNOW     N/A N/A N/A E10G17    29.88S VSB 1/4
$$

COZ069>075-292300-
...SAN LUIS VALLEY/SANGRE DE CRISTO MOUNTAINS...

CITY           SKY/WX    TMP DP  RH WIND       PRES   REMARKS
ALAMOSA        CLOUDY    38  33  82 N3        29.79F
LA VETA PASS   SNOW      27  21  80 MISG      29.83S VSB 1/4
SAGUACHE       LGT SNOW  34  32  93 CALM      29.82S
$$

COZ035-036-038>040-292300-
...NORTHERN COLORADO FRONT RANGE...

CITY           SKY/WX    TMP DP  RH WIND       PRES   REMARKS
DENVER INTL AP SNOW      33  30  88 N7        29.92  VSB 1/4 WCI  27
DMNS CITY PARK   N/A     34  33  98 NE6       29.92F WCI  29
AURORA         LGT SNOW  33  32  99 N10       29.92F FOG     WCI  24
FRONT RANGE AP LGT SNOW  32  32 100 N9        29.93S VSB 1   WCI  24
ERIE MUNI ARPT LGT RAIN  36  36  99 N6        29.94F
BOULDER MUN AP LGT SNOW  34  34 100 N5        29.93F WCI  30
CENTENNIAL     LGT SNOW  33  31  92 N6        29.91  VSB 3/4 WCI  28
BROOMFIELD     LGT SNOW  34  34 100 N6        29.93F VSB 3/4 WCI  29
FORT COLLINS   CLOUDY    34  32  93 CALM      29.96S
LONGMONT       LGT SNOW  38  36  92 N3        29.96F
$$

COZ041-046-047-076>085-087-088-292300-
...PIKES PEAK/PALMER DIVIDE AND SOUTHERN FOOTHILLS...

CITY           SKY/WX    TMP DP  RH WIND       PRES   REMARKS
COLO. SPRINGS  SNOW      34  33  96 N9        29.88F VSB 1/4 WCI  27
A. F. ACADEMY  LGT SNOW  32  32 100 N7        29.87F FOG     WCI  26
SCHRIEVER AFB  NOT AVBL
ELLICOTT       NOT AVBL
FALCON         LGT SNOW  33  30  89 N8        29.87F VSB 1   WCI  26
FORT CARSON    LGT RAIN  34  32  93 N9        29.87S WCI  26
LIMON          HVY SNOW  32  32 100 N10       29.88F VSB 1/4 WCI  24
MONUMENT HILL  LGT SNOW  30  28  93 N7        29.90S WCI  23
TRINIDAD       LGT SNOW  35  30  82 N9        29.84F WCI  28
$$

COZ042>045-048>051-090-091-292300-
...NORTHEAST COLORADO...

CITY           SKY/WX    TMP DP  RH WIND       PRES   REMARKS
GREELEY ARPT   CLOUDY    36  34  93 E3        29.96S
AKRON          LGT SNOW  32  31  96 NE7       29.91F VSB 3/4 WCI  26
BURLINGTON     SNOW      33  31  92 N12       29.88R VSB 1/2 WCI  24
WRAY           NOT AVBL
STERLING       RAIN      36  36 100 NE8       29.93F
HOLYOKE        NOT AVBL
FORT MORGAN    LGT SNOW  33  32  98 N7        29.94F WCI  26
$$

COZ086-089-092>099-292300-
...SOUTHEAST COLORADO...

CITY           SKY/WX    TMP DP  RH WIND       PRES   REMARKS
PUEBLO         LGT RAIN  38  34  85 N3        29.88  FOG
LA JUNTA       CLOUDY    39  36  89 NE16      29.86S
LAMAR          MIX PCPN  37  35  92 N10       29.84F
SPRINGFIELD      N/A     39  37  92 N16       29.80F
$$




USA.gov is the U.S. government's official web portal to all federal, state and local government web resources and services.